sat.trackr.live / text

‹ back to catalog

IRIDIUM 143

NORAD 43258 · 2018-030K

PAYLOAD ACTIVE UNKNOWN

§ Identity

Operator
Country
US
Launch date
2018-03-30
Launch site
AFWTR
Launch vehicle
Mass (kg)
RCS (m²)

Purposes: comms

External: N2YO · Heavens-Above · Gunter

§ Orbital elements

Epoch: 2026-05-24T23:10:59.350944Z

Period
100.40 min
Inclination
86.3942°
Eccentricity
0.0002071
Mean motion
14.34218363 rev/d
Perigee alt
776.2 km
Apogee alt
779.1 km
Semi-major
7,155.8 km
B*
2.9236e-5
RAAN
300.2703°
Arg perigee
89.6044°
Mean anomaly
270.5389°
Rev number
42,676

§ Raw data

IRIDIUM 1431 43258U 18030K   26144.96596471  .00000102  00000+0  29236-4 0  99962 43258  86.3942 300.2703 0002071  89.6044 270.5389 14.34218363426766

JSON: /api/v1/satellites/43258 · /tle

For live sub-satellite position, see the globe view (requires WebGL).

§ Visibility from observer

Set your observer location to see the next 7 days of passes ≥ 10°. The values pass through the URL so the page stays shareable.

No JS? Fill the form by hand. The geolocation button needs JavaScript.